Location: Newark
(44.2764°N, 5.2753°E)
Time: 13:38:18
(UTC+00:00)

ISS - Pass Details

Date: 25 January 2020
Orbit: 415 x 422 km, 51.6° (Epoch: 26 February)

Event Time Altitude Azimuth Distance (km) Brightness Sun altitude
Rises 18:07:37 0° 261° (W) 2,374 1.9 -16.0°
Reaches altitude 10° 18:09:49 10° 269° (W) 1,510 0.4 -16.4°
Maximum altitude 18:13:00 38° 340° (NNW) 667 -2.7 -16.9°
Enters shadow 18:14:05 29° 22° (NNE) 808 -2.6 -17.1°
